Location: Oberwangen
(47.4286°N, 8.9679°E)
Time: 10:44:19
(UTC+00:00)

Cosmos 1953 Rocket - Pass Details

Date: 29 October 2021
Orbit: 604 x 635 km, 82.5° (Epoch: 26 November)

Event Time Altitude Azimuth Distance (km) Brightness Sun altitude
Rises 19:48:23 0° 329° (NNW) 2,936 7.7 -36.8°
Reaches altitude 10° 19:52:46 10° 289° (WNW) 2,013 6.9 -37.4°
Maximum altitude 19:53:27 10° 280° (W) 1,989 6.8 -37.5°
Drops below altitude 10° 19:54:07 10° 271° (W) 2,008 6.8 -37.7°
Enters shadow 19:56:52 - 241° (WSW) 2,453 7.0 -38.1°
